Starlink 32409

operational
NORAD ID: 61591 Int'l Des: 2024-187 Owner: SPXS Country: US Constellation: starlink
LEOCIRCULAR

About Starlink 32409

Description loading...

Live Position

Loading 3D Globe...

Upcoming Passes

Altitude History

Altitude vs Time

uPlot chart will show altitude changes over time

Two-Line Element Set

1 61591U 24187T 25354.20575819 -.00001226 00000-0 -29278-4 0 9995
2 61591 53.1608 59.3567 0001218 81.5191 278.5948 15.30203144 67121
Epoch: Dec 20, 2025 • Age: 5 hours

Current Status

Altitude 477.2 km
Velocity 7.63 km/s
Sub-Earth Point -6.42°S, 179.68°W
Launch Date Oct 18, 2024
Age 1.1 years
Type internet

Technical Details

Classification Payload
Mass 730.00 kg
Dry Mass 700.00 kg
Total Mass 730.00 kg
Length 0.30 m
Diameter 4.10 m
Span 29.00 m
Shape Box + pan
Manufacturer SPXS
Bus Type Starlink V2M
Phase Status In Orbit
Owner/State SPXS/US

Large Constellations

Loading constellations...